Regional Weather Roundup
Issued by NWS Bismarck, ND

Home | Current Version | Previous Version | Graphics & Text | Print | Product List | Glossary On
Versions: 1 2 3 4 5 6 7 8 9 10 11 12 13 14 15 16 17 18 19 20 21 22 23 24 25 26 27 28 29 30 31 32 33 34 35 36 37 38 39 40 41 42 43 44 45 46 47 48 49 50
000
ASUS43 KBIS 181020
RWRBIS

NWR BROADCAST TEXT
NATIONAL WEATHER SERVICE BISMARCK ND
500 AM CDT THU SEP 18 2014

NOTE: "FAIR" INDICATES FEW OR NO CLOUDS BELOW 12,000 FEET WITH NO
SIGNIFICANT WEATHER AND/OR OBSTRUCTIONS TO VISIBILITY.


CITY           SKY/WX    TMP DP  RH WIND       PRES   REMARKS
WILLISTON      CLEAR     57  47  69 SE6       29.81F
MINOT          CLEAR     47  45  93 SE9       29.91F
MINOT AFB      PTCLDY    45  45  99 SE9       29.90F
BISMARCK       CLEAR     48  46  93 NE7       29.94F
DICKINSON      CLEAR     52  46  80 S12       29.86F
GARRISON         N/A     52  49  89 SE9       29.91F
HETTINGER ARPT PTCLDY    52  46  80 SE9       29.90F
JAMESTOWN      FOG       40  38  93 NE3       29.98F VSB 1/2
BEACH            N/A     54  52  94 S15G21    29.83S
CARRINGTON     FAIR      41  41 100 SE8       29.98F
CROSBY         FAIR      54  50  87 SE14      29.82F
HARVEY         FAIR      41  41 100 SE9       29.95F
HAZEN          FAIR      45  43  93 E6        29.91F
LINTON         FAIR      48  48 100 E7        29.94F
MANDAN         FAIR      46  45  93 E6        29.94F
OAKES            N/A     45  45 100 NE6       29.98S
RUGBY          FAIR      45  45 100 SE9       29.95F
STANLEY        FAIR      48  48 100 SE8       29.88F
TIOGA          FAIR      48  48 100 SE8       29.88F
WATFORD CITY   FAIR      52  45  76 SE3       29.81F
$$

CITY           SKY/WX    TMP DP  RH WIND       PRES   REMARKS
GRAND FORKS    CLEAR     37  36  96 CALM      30.01F
GRAND FORKS AF CLEAR     36  36 100 N2        30.02S
DEVILS LAKE    CLEAR     43  36  75 E3        29.97F
FARGO          CLEAR     44  42  93 CALM      30.00S
CANDO          FAIR      39  37  93 SE7       29.98F
CAVALIER       FAIR      36  36 100 CALM      30.02F FOG
GRAFTON        FAIR      37  37 100 N3        30.02F
GWINNER        SUNNY     45  45 100 N6        29.99F
LANGDON        FAIR      37  37 100 SE9       29.98F
ROLLA          FAIR      36  36 100 SW5       29.98F
WALHALLA       FOG       34  34 100 CALM      30.02F VSB 3/4
$$

CITY           SKY/WX    TMP DP  RH WIND       PRES   REMARKS
ABERDEEN       CLEAR     44  44 100 N3        29.97F
MOBRIDGE       CLEAR     51  48  89 E9        29.91F
BUFFALO          N/A     55  50  83 SE8       29.81F
RAPID CITY     CLEAR     53  50  89 SE5       29.90F
GLASGOW        PTCLDY    55  47  74 E15       29.70F
SIDNEY         PTCLDY   N/A N/A N/A S5        29.79F
WOLF POINT     PTCLDY    50  44  80 E6        29.74F
GLENDIVE       PTCLDY    55  50  82 S7        29.80S
MILES CITY     CLEAR     60  51  72 S10       29.77F
BAKER          PTCLDY    55  50  83 SE10      29.84F
$$

CITY           SKY/WX    TMP DP  RH WIND       PRES   REMARKS
BILLINGS       PTCLDY    63  47  55 SW8       29.80F
GREAT FALLS    MOCLDY    67  41  38 S13       29.74F
REGINA         CLEAR     48  46  93 SE18G25   29.75F
ESTEVAN        PTCLDY    46  45  93 SE8       29.84F
$$




USA.gov is the U.S. government's official web portal to all federal, state and local government web resources and services.